EW8805 Weather Reports


time (UTC)temp
C
wind
direction
speed
KPH
gust
KPH
rain 1hr
cm
rain 24hr
cm
rain mn
cm
humidity
%
barometer
mb
20260503072608 15 245 8.0 11.3 0.00 0.00 0.00 85 1014.3
20260503072022 15 246 6.4 16.1 0.00 0.00 0.00 85 1014.3
20260503071538 15 221 1.6 16.1 0.00 0.00 0.00 85 1014.3
20260503071020 15 212 8.0 12.9 0.00 0.00 0.00 86 1014.3
20260503070551 15 232 6.4 8.0 0.00 0.00 0.00 89 1014.2
20260503055033 -17 0.0 0.0 0.00 0.00 0.00 1014.0
20260503054523 -17 0.0 0.0 0.00 0.00 0.00 1013.9
20260503054105 -17 0.0 0.0 0.00 0.00 0.00 1014.0
20260503053523 -17 0.0 0.0 0.00 0.00 0.00 1014.0
20260503053045 -17 0.0 0.0 0.00 0.00 0.00 1014.1
20260503052533 -17 0.0 0.0 0.00 0.00 0.00 1014.0
20260503052033 -17 0.0 0.0 0.00 0.00 0.00 1014.0
20260503051520 -17 0.0 0.0 0.00 0.00 0.00 1013.9
20260503051027 -17 0.0 0.0 0.00 0.00 0.00 1014.0
20260503050523 -17 0.0 0.0 0.00 0.00 0.00 1013.9
20260503050042 -17 0.0 0.0 0.00 0.00 0.00 1013.8
20260503045534 -17 0.0 0.0 0.00 0.00 0.00 1013.8
20260503045041 -17 0.0 0.0 0.00 0.00 0.00 1013.8
20260503044528 -17 0.0 0.0 0.00 0.00 0.00 1013.7
20260503044028 -17 0.0 0.0 0.00 0.00 0.00 1013.7
20260503043543 -17 0.0 0.0 0.00 0.00 0.00 1013.7
20260503043029 15 239 8.0 12.9 0.00 0.00 0.00 82 1013.8
20260503042524 15 239 8.0 12.9 0.00 0.00 0.00 82 1013.8
20260503042030 15 247 8.0 12.9 0.00 0.00 0.00 82 1013.8
20260503041532 15 248 8.0 12.9 0.00 0.00 0.00 81 1013.8
20260503041042 15 257 4.8 11.3 0.00 0.00 0.00 81 1013.8
20260503040532 15 255 8.0 11.3 0.00 0.00 0.00 80 1014.0
20260503040105 15 247 8.0 9.7 0.00 0.00 0.00 79 1014.0
20260503035529 15 243 4.8 9.7 0.00 0.00 0.00 79 1014.1
20260503035021 15 219 4.8 8.0 0.00 0.00 0.00 79 1014.1
20260503034546 15 221 3.2 6.4 0.00 0.00 0.00 80 1014.1
20260503034025 15 240 3.2 6.4 0.00 0.00 0.00 80 1014.1
20260503033524 15 226 4.8 6.4 0.00 0.00 0.00 80 1014.0
20260503033101 15 228 3.2 8.0 0.00 0.00 0.00 79 1014.1
20260503032545 15 242 6.4 9.7 0.00 0.00 0.00 78 1014.1
20260503032038 15 235 6.4 9.7 0.00 0.00 0.00 78 1014.1
20260503031525 15 238 4.8 9.7 0.00 0.00 0.00 78 1014.1
20260503031026 15 235 4.8 9.7 0.00 0.00 0.00 77 1014.2
20260503030542 15 240 4.8 8.0 0.00 0.00 0.00 77 1014.1
20260503030118 15 241 4.8 11.3 0.00 0.00 0.00 77 1014.1
20260503025538 15 221 4.8 11.3 0.00 0.00 0.00 77 1014.1
20260503025029 15 239 6.4 11.3 0.00 0.00 0.00 78 1014.2
20260503024521 15 221 6.4 9.7 0.00 0.00 0.00 79 1014.4
20260503024042 15 238 3.2 9.7 0.00 0.00 0.00 79 1014.4
20260503023524 15 243 1.6 6.4 0.00 0.00 0.00 79 1014.4
20260503023054 15 217 3.2 9.7 0.00 0.00 0.00 78 1014.3
20260503022520 15 218 4.8 9.7 0.00 0.00 0.00 78 1014.3
20260503022033 15 219 4.8 8.0 0.00 0.00 0.00 78 1014.3
20260503021538 15 269 3.2 6.4 0.00 0.00 0.00 78 1014.3
20260503021041 15 212 3.2 6.4 0.00 0.00 0.00 78 1014.3
20260503020537 15 211 3.2 6.4 0.00 0.00 0.00 78 1014.2
20260503020053 15 221 4.8 6.4 0.00 0.00 0.00 78 1014.3
20260503015529 15 232 1.6 4.8 0.00 0.00 0.00 78 1014.2
20260503015057 15 224 1.6 3.2 0.00 0.00 0.00 79 1014.2
20260503014529 15 250 1.6 6.4 0.00 0.00 0.00 78 1014.2
20260503014033 15 221 0.0 6.4 0.00 0.00 0.00 79 1014.3
20260503013542 16 252 1.6 4.8 0.00 0.00 0.00 78 1014.4
20260503013036 16 228 0.0 4.8 0.00 0.00 0.00 78 1014.3
20260503012538 16 212 0.0 3.2 0.00 0.00 0.00 78 1014.3
20260503012028 16 224 0.0 4.8 0.00 0.00 0.00 78 1014.3
20260503011541 16 222 0.0 6.4 0.00 0.00 0.00 78 1014.5
20260503011033 16 245 4.8 8.0 0.00 0.00 0.00 78 1014.5
20260503010533 16 229 3.2 8.0 0.00 0.00 0.00 79 1014.5
20260503010048 15 221 0.0 1.6 0.00 0.00 0.00 80 1014.5
20260503005535 15 222 0.0 1.6 0.00 0.00 0.00 80 1014.7
20260503005043 15 219 0.0 3.2 0.00 0.00 0.00 80 1014.7
20260503004544 15 218 1.6 4.8 0.00 0.00 0.00 80 1014.8
20260503004029 15 236 1.6 6.4 0.00 0.00 0.00 80 1014.9
20260503003527 15 226 1.6 6.4 0.00 0.00 0.00 80 1015.0
20260503003035 15 213 1.6 6.4 0.00 0.00 0.00 81 1015.0
20260503002523 15 221 0.0 6.4 0.00 0.00 0.00 81 1015.0
20260503002049 15 228 4.8 6.4 0.00 0.00 0.00 81 1015.0
20260503001554 15 236 4.8 6.4 0.00 0.00 0.00 81 1015.0
20260503001043 15 239 3.2 6.4 0.00 0.00 0.00 81 1015.1
20260503000544 15 231 3.2 6.4 0.00 0.00 0.00 82 1015.0
20260503000108 15 243 4.8 6.4 0.00 0.00 0.00 82 1015.0
20260502235528 15 241 4.8 6.4 0.00 0.00 0.00 82 1015.1
20260502235022 15 233 0.0 6.4 0.00 0.00 0.00 82 1015.1
20260502234537 15 256 1.6 6.4 0.00 0.00 0.00 82 1015.1
20260502234034 15 253 3.2 4.8 0.00 0.00 0.00 81 1015.3
20260502233526 15 246 1.6 6.4 0.00 0.00 0.00 81 1015.3
20260502233040 15 240 3.2 6.4 0.00 0.00 0.00 81 1015.3
20260502232524 15 249 3.2 4.8 0.00 0.00 0.00 81 1015.3
20260502232039 15 257 1.6 4.8 0.00 0.00 0.00 81 1015.2
20260502231547 15 245 3.2 4.8 0.00 0.00 0.00 81 1015.3
20260502231024 15 250 0.0 3.2 0.00 0.00 0.00 80 1015.3
20260502230530 16 240 0.0 4.8 0.00 0.00 0.00 79 1015.3
20260502230108 16 256 3.2 4.8 0.00 0.00 0.00 77 1015.4
20260502225549 16 236 3.2 4.8 0.00 0.00 0.00 77 1015.4
20260502225022 16 232 3.2 4.8 0.00 0.00 0.00 77 1015.4
20260502224605 16 228 0.0 1.6 0.00 0.00 0.00 77 1015.4
20260502224044 16 228 0.0 1.6 0.00 0.00 0.00 76 1015.4
20260502223521 16 217 0.0 3.2 0.00 0.00 0.00 76 1015.4
20260502223040 16 208 0.0 4.8 0.00 0.00 0.00 76 1015.5
20260502222600 16 231 1.6 4.8 0.00 0.00 0.00 76 1015.3
20260502222039 16 201 0.0 6.4 0.00 0.00 0.00 76 1015.4
20260502221525 16 226 3.2 6.4 0.00 0.00 0.00 75 1015.4
20260502221023 16 210 1.6 8.0 0.00 0.00 0.00 75 1015.4
20260502220543 16 207 1.6 8.0 0.00 0.00 0.00 74 1015.4
20260502220104 16 193 1.6 4.8 0.00 0.00 0.00 74 1015.5
20260502215541 17 176 1.6 6.4 0.00 0.00 0.00 73 1015.6
20260502215020 17 214 0.0 4.8 0.00 0.00 0.00 73 1015.6
20260502214530 17 212 1.6 4.8 0.00 0.00 0.00 72 1015.7
20260502214027 17 206 0.0 4.8 0.00 0.00 0.00 72 1015.7
20260502213540 17 210 0.0 4.8 0.00 0.00 0.00 72 1015.8
20260502213020 17 216 0.0 4.8 0.00 0.00 0.00 71 1015.6
20260502212528 17 195 3.2 6.4 0.00 0.00 0.00 70 1015.7
20260502212040 17 155 1.6 6.4 0.00 0.00 0.00 70 1015.8
20260502211540 17 195 1.6 4.8 0.00 0.00 0.00 69 1015.7
20260502211045 17 207 0.0 6.4 0.00 0.00 0.00 69 1015.7
20260502210545 17 243 4.8 6.4 0.00 0.00 0.00 69 1015.7
20260502210052 17 240 1.6 6.4 0.00 0.00 0.00 70 1015.6
20260502205555 17 242 0.0 1.6 0.00 0.00 0.00 70 1015.6
20260502205034 17 242 0.0 1.6 0.00 0.00 0.00 70 1015.4
20260502204541 17 242 0.0 0.0 0.00 0.00 0.00 70 1015.4
20260502204045 17 242 0.0 0.0 0.00 0.00 0.00 71 1015.4
20260502203522 17 241 0.0 0.0 0.00 0.00 0.00 70 1015.3
20260502203022 17 242 0.0 1.6 0.00 0.00 0.00 70 1015.2
20260502202553 17 242 0.0 1.6 0.00 0.00 0.00 69 1015.1
20260502202046 17 242 0.0 4.8 0.00 0.00 0.00 69 1015.1
20260502201534 17 242 0.0 4.8 0.00 0.00 0.00 69 1015.0
20260502201047 17 242 0.0 3.2 0.00 0.00 0.00 68 1015.0
20260502200536 17 259 0.0 1.6 0.00 0.00 0.00 68 1015.0
20260502200053 17 258 0.0 3.2 0.00 0.00 0.00 68 1015.0
20260502195530 17 249 0.0 4.8 0.00 0.00 0.00 67 1014.9
20260502195033 17 246 3.2 6.4 0.00 0.00 0.00 67 1014.9
20260502194537 18 255 3.2 8.0 0.00 0.00 0.00 66 1014.9
20260502194037 18 263 3.2 9.7 0.00 0.00 0.00 65 1014.8
20260502193525 18 246 6.4 9.7 0.00 0.00 0.00 65 1014.8
20260502193027 18 263 6.4 9.7 0.00 0.00 0.00 64 1014.8
20260502192543 18 266 6.4 9.7 0.00 0.00 0.00 63 1014.8
20260502192025 18 252 6.4 8.0 0.00 0.00 0.00 62 1014.8
20260502191541 18 281 3.2 9.7 0.00 0.00 0.00 60 1014.8
20260502191050 19 262 6.4 9.7 0.00 0.00 0.00 58 1014.8
20260502190532 19 281 4.8 8.0 0.00 0.00 0.00 58 1014.8
20260502190104 19 257 4.8 8.0 0.00 0.00 0.00 57 1014.8
20260502185524 20 259 3.2 8.0 0.00 0.00 0.00 56 1014.8
20260502185054 20 249 3.2 9.7 0.00 0.00 0.00 55 1014.8
20260502184520 20 255 6.4 9.7 0.00 0.00 0.00 54 1014.8
20260502184021 20 245 1.6 9.7 0.00 0.00 0.00 54 1014.8
20260502183541 20 243 6.4 12.9 0.00 0.00 0.00 53 1014.8
20260502183057 20 239 6.4 16.1 0.00 0.00 0.00 52 1014.8
20260502182551 20 231 9.7 16.1 0.00 0.00 0.00 52 1014.7
20260502182028 20 231 4.8 14.5 0.00 0.00 0.00 52 1014.7
20260502181601 20 278 6.4 17.7 0.00 0.00 0.00 51 1014.7
20260502181049 20 245 8.0 17.7 0.00 0.00 0.00 50 1014.8
20260502180535 20 270 9.7 20.9 0.00 0.00 0.00 50 1014.7
20260502164048 22 188 9.7 25.7 0.00 0.00 0.00 46 1014.7
20260502163528 22 214 14.5 25.7 0.00 0.00 0.00 45 1014.8
20260502163033 22 201 14.5 24.1 0.00 0.00 0.00 42 1014.8
20260502162547 22 186 11.3 25.7 0.00 0.00 0.00 43 1014.9
20260502162042 22 249 14.5 30.6 0.00 0.00 0.00 42 1014.9
20260502161545 22 224 19.3 30.6 0.00 0.00 0.00 42 1014.9
20260502161034 22 211 14.5 35.4 0.00 0.00 0.00 42 1014.7
20260502160543 22 208 27.4 35.4 0.00 0.00 0.00 44 1014.9
20260502152027 22 276 16.1 25.7 0.00 0.00 0.00 52 1015.1
20260502151554 22 253 16.1 27.4 0.00 0.00 0.00 54 1015.2
20260502151024 22 249 12.9 24.1 0.00 0.00 0.00 54 1015.3
20260502150533 22 224 19.3 24.1 0.00 0.00 0.00 54 1015.4
20260502140106 21 202 8.0 19.3 0.00 0.00 0.00 62 1016.0
20260502130530 21 240 6.4 16.1 0.00 0.00 0.00 58 1016.6
20260502123608 21 248 1.6 11.3 0.00 0.00 0.00 57 1016.9
20260502123032 22 233 8.0 11.3 0.00 0.00 0.00 56 1016.8
20260502122540 22 231 1.6 8.0 0.00 0.00 0.00 56 1016.7
20260502122032 21 217 0.0 9.7 0.00 0.00 0.00 58 1016.8
20260502121523 21 166 1.6 9.7 0.00 0.00 0.00 58 1016.9
20260502121048 21 149 3.2 8.0 0.00 0.00 0.00 59 1016.9
20260502120547 21 136 0.0 11.3 0.00 0.00 0.00 61 1016.9
20260502115536 20 146 4.8 9.7 0.00 0.00 0.00 61 1017.2
20260502115035 20 150 4.8 9.7 0.00 0.00 0.00 60 1017.2
20260502114522 20 107 4.8 11.3 0.00 0.00 0.00 60 1017.3
20260502114024 20 146 4.8 11.3 0.00 0.00 0.00 60 1017.3
20260502113539 20 219 0.0 8.0 0.00 0.00 0.00 60 1017.3
20260502113050 20 217 3.2 8.0 0.00 0.00 0.00 60 1017.5
20260502112533 20 204 0.0 9.7 0.00 0.00 0.00 61 1017.7
20260502112024 20 226 3.2 9.7 0.00 0.00 0.00 61 1017.8
20260502111539 20 218 0.0 6.4 0.00 0.00 0.00 60 1017.8
20260502111039 20 271 0.0 4.8 0.00 0.00 0.00 60 1017.9
20260502110559 20 246 0.0 6.4 0.00 0.00 0.00 61 1017.9
20260502110057 20 148 0.0 6.4 0.00 0.00 0.00 61 1018.0
20260502105546 20 229 0.0 4.8 0.00 0.00 0.00 62 1018.2
20260502105028 20 236 0.0 4.8 0.00 0.00 0.00 62 1018.2
20260502104532 20 295 0.0 6.4 0.00 0.00 0.00 62 1018.1
20260502104042 19 184 0.0 6.4 0.00 0.00 0.00 63 1018.0
20260502103550 19 245 0.0 8.0 0.00 0.00 0.00 65 1018.2
20260502103029 19 248 1.6 9.7 0.00 0.00 0.00 64 1018.3
20260502102527 19 242 3.2 9.7 0.00 0.00 0.00 63 1018.3
20260502102028 19 246 3.2 9.7 0.00 0.00 0.00 61 1018.3
20260502101547 20 253 1.6 4.8 0.00 0.00 0.00 61 1018.2
20260502101029 20 51 0.0 1.6 0.00 0.00 0.00 60 1018.1
20260502100533 20 138 0.0 3.2 0.00 0.00 0.00 60 1018.2
20260502100105 20 138 0.0 11.3 0.00 0.00 0.00 61 1018.3
20260502091040 18 243 0.0 3.2 0.00 0.00 0.00 66 1018.5
20260502090543 17 276 0.0 3.2 0.00 0.00 0.00 66 1018.5
20260502080106 16 83 0.0 1.6 0.00 0.00 0.00 84 1018.1